EWG19J EDDM-LEPA

Flight info

Callsign EWG19J
Flight time 1h 55m
Altitude 37000
Route TURBU7S TURBU Y107 TOBSO DCT BAKOR DCT SUMIR DCT MISPO DCT PIDAD DCT TALEP DCT RARQU DCT BALEN UT250 RIXOT
Aircraft B738/M-SDE2E3FGHIRWXY/LB1

Departure

Time 2026-05-05 15:34
Airport Munich Airport (EDDM)

Arrival

Time 2026-05-05 17:30
Airport Palma de Mallorca Airport (LEPA)
Time Latitude Longitude Altitude Speed Heading
2026-05-05 15:05 48.35202 11.79347 1485 ft 0 kts 263°
2026-05-05 15:26 48.35203 11.79359 1469 ft 4 kts 262°
2026-05-05 15:26 48.35207 11.79399 1467 ft 4 kts 257°
2026-05-05 15:27 48.35214 11.79438 1470 ft 4 kts 250°
2026-05-05 15:27 48.35226 11.79474 1470 ft 4 kts 227°
2026-05-05 15:27 48.35243 11.79490 1474 ft 2 kts 174°
2026-05-05 15:27 48.35249 11.79489 1477 ft 0 kts 174°
2026-05-05 15:30 48.35248 11.79489 1477 ft 0 kts 174°
2026-05-05 15:30 48.35222 11.79493 1473 ft 8 kts 174°
2026-05-05 15:30 48.35143 11.79506 1483 ft 15 kts 174°
2026-05-05 15:31 48.35028 11.79525 1483 ft 17 kts 174°
2026-05-05 15:31 48.34917 11.79542 1485 ft 16 kts 174°
2026-05-05 15:31 48.34812 11.79579 1480 ft 15 kts 141°
2026-05-05 15:31 48.34787 11.79723 1481 ft 15 kts 75°
2026-05-05 15:32 48.34815 11.79869 1484 ft 14 kts 83°
2026-05-05 15:32 48.34827 11.80012 1478 ft 13 kts 83°
2026-05-05 15:32 48.34836 11.80147 1476 ft 13 kts 92°
2026-05-05 15:32 48.34776 11.80227 1472 ft 13 kts 169°
2026-05-05 15:33 48.34690 11.80249 1480 ft 12 kts 174°
2026-05-05 15:33 48.34606 11.80263 1480 ft 12 kts 174°
2026-05-05 15:33 48.34524 11.80276 1484 ft 12 kts 174°
2026-05-05 15:33 48.34466 11.80244 1480 ft 9 kts 249°
2026-05-05 15:34 48.34443 11.80075 1481 ft 40 kts 258°
2026-05-05 15:34 48.34387 11.79294 1485 ft 108 kts 263°
2026-05-05 15:34 48.34273 11.77883 1543 ft 157 kts 263°
2026-05-05 15:34 48.34170 11.76275 2319 ft 160 kts 266°
2026-05-05 15:35 48.34047 11.74572 3082 ft 163 kts 265°
2026-05-05 15:35 48.33904 11.72843 3795 ft 179 kts 262°
2026-05-05 15:35 48.33263 11.71073 4173 ft 212 kts 220°
2026-05-05 15:35 48.31823 11.70417 4909 ft 226 kts 181°
2026-05-05 15:36 48.30232 11.70509 5732 ft 230 kts 179°
2026-05-05 15:36 48.28681 11.70836 6472 ft 231 kts 157°
2026-05-05 15:36 48.27274 11.72157 6880 ft 248 kts 146°
2026-05-05 15:36 48.25821 11.73691 7306 ft 266 kts 147°
2026-05-05 15:37 48.24251 11.75328 7894 ft 279 kts 147°
2026-05-05 15:37 48.22647 11.76977 8800 ft 279 kts 148°
2026-05-05 15:37 48.21035 11.78618 9696 ft 282 kts 148°
2026-05-05 15:37 48.19393 11.80280 10438 ft 286 kts 148°
2026-05-05 15:38 48.17703 11.81875 11182 ft 290 kts 156°
2026-05-05 15:38 48.15761 11.83000 11470 ft 311 kts 163°
2026-05-05 15:38 48.13616 11.84024 11652 ft 335 kts 165°
2026-05-05 15:38 48.11352 11.85082 11827 ft 356 kts 164°
2026-05-05 15:39 48.08936 11.86232 12225 ft 369 kts 164°
2026-05-05 15:39 48.06469 11.87430 12853 ft 375 kts 164°
2026-05-05 15:39 48.03980 11.88657 13574 ft 378 kts 163°
2026-05-05 15:39 48.01474 11.89901 14217 ft 381 kts 163°
2026-05-05 15:40 47.98946 11.91158 14911 ft 383 kts 164°
2026-05-05 15:40 47.96409 11.92417 15575 ft 386 kts 164°
2026-05-05 15:40 47.93851 11.93684 16237 ft 388 kts 164°
2026-05-05 15:40 47.91260 11.94832 16885 ft 389 kts 172°
2026-05-05 15:41 47.88571 11.95007 17520 ft 388 kts 183°
2026-05-05 15:41 47.85863 11.94873 18146 ft 391 kts 183°
2026-05-05 15:41 47.83136 11.94753 18663 ft 394 kts 183°
2026-05-05 15:41 47.80394 11.94662 19220 ft 396 kts 182°
2026-05-05 15:42 47.77632 11.94593 19755 ft 398 kts 182°
2026-05-05 15:42 47.74855 11.94534 20290 ft 400 kts 182°
2026-05-05 15:42 47.72060 11.94477 20795 ft 403 kts 182°
2026-05-05 15:42 47.69286 11.94429 21283 ft 405 kts 182°
2026-05-05 15:43 47.66455 11.94384 21785 ft 407 kts 182°
2026-05-05 15:43 47.63615 11.94338 22258 ft 410 kts 182°
2026-05-05 15:43 47.60748 11.94291 22696 ft 413 kts 182°
2026-05-05 15:43 47.57863 11.94245 23128 ft 415 kts 182°
2026-05-05 15:44 47.54966 11.94197 23562 ft 417 kts 182°
2026-05-05 15:44 47.52059 11.94149 23954 ft 418 kts 182°
2026-05-05 15:44 47.49137 11.94100 24369 ft 420 kts 182°
2026-05-05 15:44 47.46245 11.94052 24717 ft 423 kts 182°
2026-05-05 15:45 47.43294 11.93989 25075 ft 425 kts 184°
2026-05-05 15:45 47.40348 11.93609 25417 ft 427 kts 188°
2026-05-05 15:45 47.37393 11.93017 25746 ft 429 kts 189°
2026-05-05 15:45 47.34432 11.92379 26047 ft 431 kts 190°
2026-05-05 15:46 47.31453 11.91739 26393 ft 433 kts 189°
2026-05-05 15:46 47.28465 11.91114 26737 ft 435 kts 189°
2026-05-05 15:46 47.25463 11.90502 27055 ft 437 kts 189°
2026-05-05 15:46 47.22436 11.89897 27364 ft 439 kts 189°
2026-05-05 15:47 47.19395 11.89296 27616 ft 442 kts 189°
2026-05-05 15:47 47.17373 11.88899 27811 ft 444 kts 189°
2026-05-05 15:47 47.13304 11.88099 28243 ft 445 kts 189°
2026-05-05 15:47 47.10201 11.87490 28633 ft 443 kts 189°
2026-05-05 15:48 47.07182 11.86897 29069 ft 442 kts 189°
2026-05-05 15:48 47.04135 11.86299 29516 ft 441 kts 189°
2026-05-05 15:48 47.01096 11.85670 29907 ft 440 kts 192°
2026-05-05 15:48 46.98101 11.84790 30291 ft 438 kts 194°
2026-05-05 15:49 46.95123 11.83829 30665 ft 437 kts 195°
2026-05-05 15:49 46.92163 11.82853 30988 ft 436 kts 195°
2026-05-05 15:49 46.89209 11.81883 31335 ft 435 kts 195°
2026-05-05 15:49 46.86247 11.80923 31722 ft 434 kts 195°
2026-05-05 15:50 46.83299 11.79978 32113 ft 432 kts 195°
2026-05-05 15:50 46.80361 11.79044 32452 ft 432 kts 195°
2026-05-05 15:50 46.77435 11.78118 32778 ft 430 kts 195°
2026-05-05 15:50 46.74508 11.77192 33062 ft 430 kts 195°
2026-05-05 15:51 46.71611 11.76276 33320 ft 429 kts 195°
2026-05-05 15:51 46.68700 11.75358 33627 ft 428 kts 195°
2026-05-05 15:51 46.65782 11.74439 33874 ft 429 kts 195°
2026-05-05 15:51 46.62896 11.73351 34101 ft 427 kts 202°
2026-05-05 15:52 46.60169 11.71709 34393 ft 423 kts 208°
2026-05-05 15:52 46.57622 11.69568 34634 ft 421 kts 217°
2026-05-05 15:52 46.55252 11.67062 34819 ft 421 kts 218°
2026-05-05 15:52 46.52901 11.64526 35050 ft 421 kts 218°
2026-05-05 15:53 46.50580 11.62024 35286 ft 420 kts 218°
2026-05-05 15:53 46.48232 11.59509 35509 ft 420 kts 218°
2026-05-05 15:53 46.45869 11.56995 35761 ft 419 kts 217°
2026-05-05 15:53 46.43513 11.54502 36019 ft 418 kts 217°
2026-05-05 15:54 46.41155 11.52016 36248 ft 418 kts 217°
2026-05-05 15:54 46.38801 11.49538 36486 ft 417 kts 217°
2026-05-05 15:54 46.37248 11.47905 36633 ft 417 kts 217°
2026-05-05 15:54 46.34897 11.45435 36822 ft 417 kts 217°
2026-05-05 15:55 46.32549 11.42970 36970 ft 418 kts 217°
2026-05-05 15:55 46.27059 11.37215 36997 ft 418 kts 217°
2026-05-05 15:56 46.23135 11.33087 37013 ft 415 kts 218°
2026-05-05 15:56 46.18515 11.28177 36997 ft 414 kts 218°
2026-05-05 15:57 46.13876 11.23249 37003 ft 413 kts 218°
2026-05-05 15:57 46.09249 11.18348 37006 ft 412 kts 218°
2026-05-05 15:58 46.04623 11.13464 37007 ft 412 kts 218°
2026-05-05 15:58 46.00031 11.08625 36976 ft 412 kts 218°
2026-05-05 15:59 45.95415 11.03773 36990 ft 412 kts 218°
2026-05-05 15:59 45.90778 10.98908 36987 ft 413 kts 218°
2026-05-05 16:00 45.86120 10.94031 37005 ft 416 kts 218°
2026-05-05 16:00 45.81428 10.89130 37005 ft 417 kts 218°
2026-05-05 16:01 45.76722 10.84225 36998 ft 420 kts 218°
2026-05-05 16:01 45.72014 10.79327 36994 ft 421 kts 218°
2026-05-05 16:02 45.67270 10.74404 36991 ft 421 kts 218°
2026-05-05 16:02 45.62533 10.69498 36994 ft 420 kts 218°
2026-05-05 16:03 45.57803 10.64610 36997 ft 418 kts 218°
2026-05-05 16:03 45.53100 10.59759 36989 ft 416 kts 218°
2026-05-05 16:04 45.48418 10.54941 36988 ft 414 kts 218°
2026-05-05 16:04 45.43751 10.50148 36993 ft 412 kts 218°
2026-05-05 16:05 45.39102 10.45382 36997 ft 411 kts 218°
2026-05-05 16:05 45.34486 10.40661 36989 ft 410 kts 218°
2026-05-05 16:06 45.29856 10.35935 36992 ft 410 kts 218°
2026-05-05 16:06 45.25222 10.31214 36984 ft 410 kts 218°
2026-05-05 16:07 45.20574 10.26489 36971 ft 410 kts 218°
2026-05-05 16:07 45.15928 10.21775 36970 ft 411 kts 218°
2026-05-05 16:08 45.11274 10.17063 36972 ft 411 kts 218°
2026-05-05 16:08 45.06639 10.12377 36965 ft 412 kts 218°
2026-05-05 16:09 45.01962 10.07662 36977 ft 413 kts 218°
2026-05-05 16:09 44.97274 10.02935 36961 ft 413 kts 218°
2026-05-05 16:10 44.92599 9.98225 36968 ft 413 kts 218°
2026-05-05 16:10 44.87924 9.93523 36958 ft 412 kts 218°
2026-05-05 16:11 44.83291 9.88873 36967 ft 411 kts 218°
2026-05-05 16:12 44.73994 9.79571 36970 ft 408 kts 218°
2026-05-05 16:13 44.62413 9.68033 36966 ft 407 kts 219°
2026-05-05 16:13 44.57817 9.63470 36961 ft 407 kts 218°
2026-05-05 16:14 44.48565 9.54314 36960 ft 407 kts 219°
2026-05-05 16:15 44.39311 9.45191 36950 ft 407 kts 219°
2026-05-05 16:16 44.30043 9.36090 36965 ft 407 kts 219°
2026-05-05 16:17 44.23099 9.29296 36952 ft 406 kts 219°
2026-05-05 16:18 44.16188 9.22553 36956 ft 405 kts 219°
2026-05-05 16:19 44.09262 9.15814 36953 ft 404 kts 219°
2026-05-05 16:19 44.02341 9.09100 36948 ft 404 kts 219°
2026-05-05 16:20 43.93157 9.00221 36949 ft 403 kts 219°
2026-05-05 16:22 43.81627 8.89121 36951 ft 403 kts 219°
2026-05-05 16:23 43.72406 8.80279 36941 ft 403 kts 219°
2026-05-05 16:23 43.65410 8.73826 36932 ft 407 kts 211°
2026-05-05 16:24 43.59959 8.71411 36942 ft 419 kts 196°
2026-05-05 16:25 43.51110 8.71173 36941 ft 427 kts 188°
2026-05-05 16:25 43.45545 8.69404 36948 ft 404 kts 211°
2026-05-05 16:25 43.43140 8.67475 36936 ft 397 kts 221°
2026-05-05 16:26 43.34992 8.57378 36940 ft 395 kts 226°
2026-05-05 16:27 43.30912 8.52314 36946 ft 396 kts 225°
2026-05-05 16:27 43.26811 8.47258 36942 ft 397 kts 225°
2026-05-05 16:28 43.22694 8.42197 36937 ft 397 kts 225°
2026-05-05 16:28 43.18597 8.37173 36941 ft 397 kts 225°
2026-05-05 16:29 43.14475 8.32127 36941 ft 397 kts 225°
2026-05-05 16:29 43.10350 8.27088 36936 ft 397 kts 225°
2026-05-05 16:30 43.06228 8.22060 36938 ft 396 kts 225°
2026-05-05 16:30 43.02109 8.17046 36934 ft 396 kts 225°
2026-05-05 16:31 42.98021 8.12079 36936 ft 395 kts 225°
2026-05-05 16:31 42.93909 8.07092 36935 ft 395 kts 225°
2026-05-05 16:32 42.89804 8.02122 36933 ft 394 kts 225°
2026-05-05 16:32 42.85697 7.97160 36935 ft 394 kts 225°
2026-05-05 16:33 42.81586 7.92202 36938 ft 394 kts 225°
2026-05-05 16:33 42.77479 7.87257 36934 ft 393 kts 225°
2026-05-05 16:34 42.73404 7.82361 36933 ft 393 kts 225°
2026-05-05 16:34 42.69299 7.77438 36936 ft 393 kts 225°
2026-05-05 16:35 42.65191 7.72519 36937 ft 393 kts 225°
2026-05-05 16:35 42.61085 7.67612 36935 ft 393 kts 225°
2026-05-05 16:36 42.56977 7.62712 36935 ft 393 kts 225°
2026-05-05 16:36 42.52860 7.57809 36930 ft 393 kts 224°
2026-05-05 16:37 42.48775 7.52954 36932 ft 393 kts 224°
2026-05-05 16:37 42.44659 7.48071 36929 ft 394 kts 224°
2026-05-05 16:38 42.40537 7.43190 36933 ft 394 kts 224°
2026-05-05 16:38 42.36410 7.38311 36931 ft 394 kts 224°
2026-05-05 16:39 42.32274 7.33430 36930 ft 394 kts 224°
2026-05-05 16:39 42.28142 7.28563 36932 ft 394 kts 224°
2026-05-05 16:40 42.24007 7.23702 36930 ft 394 kts 224°
2026-05-05 16:40 42.19866 7.18842 36930 ft 394 kts 224°
2026-05-05 16:41 42.15751 7.14021 36931 ft 394 kts 224°
2026-05-05 16:41 42.11600 7.09165 36929 ft 394 kts 224°
2026-05-05 16:42 42.07459 7.04331 36922 ft 394 kts 224°
2026-05-05 16:42 42.03311 6.99496 36919 ft 394 kts 224°
2026-05-05 16:43 41.99206 6.94603 36923 ft 394 kts 225°
2026-05-05 16:43 41.95172 6.89627 36922 ft 394 kts 225°
2026-05-05 16:44 41.91816 6.85487 36921 ft 394 kts 225°
2026-05-05 16:44 41.87112 6.79714 36919 ft 394 kts 225°
2026-05-05 16:45 41.83720 6.75568 36919 ft 394 kts 225°
2026-05-05 16:45 41.79691 6.70656 36922 ft 394 kts 225°
2026-05-05 16:46 41.75634 6.65718 36917 ft 394 kts 225°
2026-05-05 16:46 41.71574 6.60785 36920 ft 394 kts 225°
2026-05-05 16:47 41.67512 6.55859 36920 ft 394 kts 225°
2026-05-05 16:47 41.63453 6.50945 36920 ft 394 kts 225°
2026-05-05 16:48 41.59390 6.46036 36920 ft 393 kts 225°
2026-05-05 16:48 41.55330 6.41138 36918 ft 393 kts 225°
2026-05-05 16:49 41.51268 6.36247 36915 ft 393 kts 225°
2026-05-05 16:49 41.47232 6.31395 36913 ft 393 kts 225°
2026-05-05 16:50 41.43172 6.26523 36917 ft 392 kts 225°
2026-05-05 16:50 41.39114 6.21663 36911 ft 392 kts 225°
2026-05-05 16:51 41.35051 6.16804 36914 ft 392 kts 225°
2026-05-05 16:51 41.30992 6.11959 36913 ft 392 kts 225°
2026-05-05 16:52 41.26939 6.07128 36911 ft 392 kts 224°
2026-05-05 16:52 41.22872 6.02290 36905 ft 392 kts 224°
2026-05-05 16:53 41.18830 5.97490 36908 ft 392 kts 224°
2026-05-05 16:53 41.14754 5.92658 36907 ft 393 kts 224°
2026-05-05 16:54 41.10668 5.87823 36909 ft 393 kts 224°
2026-05-05 16:54 41.06578 5.82991 36905 ft 394 kts 224°
2026-05-05 16:55 41.02480 5.78156 36905 ft 395 kts 224°
2026-05-05 16:55 40.98369 5.73314 36906 ft 396 kts 224°
2026-05-05 16:56 40.94370 5.68316 36899 ft 394 kts 231°
2026-05-05 16:56 40.91159 5.62472 36898 ft 393 kts 236°
2026-05-05 16:57 40.88013 5.56546 36902 ft 394 kts 236°
2026-05-05 16:57 40.84867 5.50664 36900 ft 394 kts 236°
2026-05-05 16:58 40.81690 5.44752 36901 ft 395 kts 236°
2026-05-05 16:58 40.78501 5.38832 36900 ft 395 kts 236°
2026-05-05 16:59 40.75298 5.32900 36313 ft 400 kts 235°
2026-05-05 16:59 40.73709 5.29960 35690 ft 397 kts 235°
2026-05-05 16:59 40.72079 5.26948 34854 ft 400 kts 235°
2026-05-05 17:00 40.70485 5.24005 34157 ft 400 kts 234°
2026-05-05 17:00 40.68863 5.21014 33369 ft 400 kts 234°
2026-05-05 17:00 40.67244 5.18030 32582 ft 400 kts 234°
2026-05-05 17:00 40.65633 5.15064 32055 ft 395 kts 234°
2026-05-05 17:01 40.64043 5.12140 31504 ft 391 kts 234°
2026-05-05 17:01 40.62464 5.09239 30821 ft 390 kts 233°
2026-05-05 17:01 40.60889 5.06346 30314 ft 385 kts 233°
2026-05-05 17:01 40.59332 5.03490 29787 ft 381 kts 233°
2026-05-05 17:02 40.57798 5.00679 29276 ft 375 kts 233°
2026-05-05 17:02 40.56287 4.97913 28797 ft 369 kts 233°
2026-05-05 17:02 40.54816 4.95221 28302 ft 364 kts 233°
2026-05-05 17:02 40.53347 4.92537 27816 ft 359 kts 234°
2026-05-05 17:03 40.51892 4.89880 27318 ft 355 kts 234°
2026-05-05 17:03 40.50454 4.87257 26829 ft 352 kts 234°
2026-05-05 17:03 40.49028 4.84655 26351 ft 349 kts 234°
2026-05-05 17:03 40.47616 4.82083 25859 ft 346 kts 234°
2026-05-05 17:04 40.46214 4.79530 25378 ft 343 kts 235°
2026-05-05 17:04 40.44819 4.76994 24899 ft 341 kts 235°
2026-05-05 17:04 40.43433 4.74480 24429 ft 339 kts 235°
2026-05-05 17:04 40.42044 4.71981 23942 ft 338 kts 235°
2026-05-05 17:05 40.40657 4.69495 23446 ft 337 kts 235°
2026-05-05 17:05 40.39304 4.67069 22916 ft 336 kts 235°
2026-05-05 17:05 40.37940 4.64615 22606 ft 329 kts 236°
2026-05-05 17:05 40.36594 4.62181 22301 ft 335 kts 236°
2026-05-05 17:06 40.35217 4.59684 22017 ft 347 kts 235°
2026-05-05 17:06 40.33785 4.57089 21702 ft 353 kts 235°
2026-05-05 17:06 40.32350 4.54495 21383 ft 350 kts 235°
2026-05-05 17:06 40.30922 4.51916 21069 ft 348 kts 235°
2026-05-05 17:07 40.29501 4.49353 20766 ft 347 kts 235°
2026-05-05 17:07 40.28086 4.46801 20466 ft 346 kts 235°
2026-05-05 17:07 40.26667 4.44245 20157 ft 345 kts 235°
2026-05-05 17:07 40.25255 4.41703 19865 ft 346 kts 235°
2026-05-05 17:08 40.23838 4.39154 19563 ft 346 kts 235°
2026-05-05 17:08 40.22438 4.36638 19270 ft 347 kts 235°
2026-05-05 17:08 40.21014 4.34081 18969 ft 348 kts 235°
2026-05-05 17:08 40.19585 4.31517 18664 ft 349 kts 235°
2026-05-05 17:09 40.18153 4.28949 18365 ft 350 kts 235°
2026-05-05 17:09 40.16719 4.26381 18045 ft 350 kts 234°
2026-05-05 17:09 40.15283 4.23809 17703 ft 350 kts 234°
2026-05-05 17:09 40.13845 4.21239 17374 ft 348 kts 234°
2026-05-05 17:10 40.12414 4.18681 17060 ft 346 kts 234°
2026-05-05 17:10 40.10997 4.16152 16759 ft 344 kts 234°
2026-05-05 17:10 40.09609 4.13675 16466 ft 341 kts 234°
2026-05-05 17:10 40.08211 4.11182 16167 ft 339 kts 234°
2026-05-05 17:11 40.06823 4.08711 15874 ft 337 kts 234°
2026-05-05 17:11 40.05443 4.06254 15584 ft 335 kts 234°
2026-05-05 17:11 40.04069 4.03810 15295 ft 333 kts 234°
2026-05-05 17:11 40.02699 4.01376 15004 ft 332 kts 234°
2026-05-05 17:12 40.01337 3.98955 14719 ft 330 kts 234°
2026-05-05 17:12 39.99973 3.96536 14430 ft 330 kts 234°
2026-05-05 17:12 39.98617 3.94132 14143 ft 329 kts 234°
2026-05-05 17:12 39.97261 3.91728 13856 ft 328 kts 234°
2026-05-05 17:13 39.95910 3.89335 13552 ft 327 kts 233°
2026-05-05 17:13 39.94562 3.86951 13234 ft 325 kts 234°
2026-05-05 17:13 39.93231 3.84596 12926 ft 319 kts 234°
2026-05-05 17:13 39.91930 3.82298 12631 ft 311 kts 234°
2026-05-05 17:14 39.90660 3.80056 12366 ft 304 kts 234°
2026-05-05 17:14 39.89431 3.77889 12101 ft 297 kts 234°
2026-05-05 17:14 39.88215 3.75748 11847 ft 291 kts 233°
2026-05-05 17:14 39.87022 3.73651 11585 ft 285 kts 233°
2026-05-05 17:15 39.85855 3.71601 11356 ft 279 kts 233°
2026-05-05 17:15 39.84708 3.69585 11112 ft 274 kts 233°
2026-05-05 17:15 39.83587 3.67617 10951 ft 268 kts 234°
2026-05-05 17:15 39.82467 3.65651 10906 ft 269 kts 233°
2026-05-05 17:16 39.81370 3.63726 10879 ft 259 kts 234°
2026-05-05 17:16 39.80325 3.61894 10870 ft 246 kts 234°
2026-05-05 17:16 39.79333 3.60155 10869 ft 233 kts 234°
2026-05-05 17:16 39.78391 3.58505 10888 ft 221 kts 234°
2026-05-05 17:17 39.77475 3.56901 10813 ft 223 kts 234°
2026-05-05 17:17 39.76545 3.55274 10495 ft 226 kts 234°
2026-05-05 17:17 39.75606 3.53630 10074 ft 227 kts 234°
2026-05-05 17:17 39.74661 3.51976 9642 ft 228 kts 234°
2026-05-05 17:18 39.73714 3.50322 9239 ft 227 kts 234°
2026-05-05 17:18 39.72777 3.48685 8824 ft 226 kts 233°
2026-05-05 17:18 39.71840 3.47050 8418 ft 225 kts 233°
2026-05-05 17:18 39.70909 3.45428 8030 ft 223 kts 233°
2026-05-05 17:19 39.70080 3.43737 7592 ft 224 kts 247°
2026-05-05 17:19 39.69788 3.41708 7017 ft 234 kts 265°
2026-05-05 17:19 39.69815 3.39584 6565 ft 236 kts 269°
2026-05-05 17:19 39.69898 3.37487 6177 ft 235 kts 270°
2026-05-05 17:20 39.69985 3.35375 5770 ft 233 kts 269°
2026-05-05 17:20 39.70068 3.33252 5335 ft 231 kts 270°
2026-05-05 17:20 39.70144 3.31195 5038 ft 231 kts 270°
2026-05-05 17:20 39.70218 3.29100 5006 ft 233 kts 270°
2026-05-05 17:21 39.70288 3.27011 4978 ft 230 kts 270°
2026-05-05 17:21 39.70356 3.24940 4963 ft 230 kts 270°
2026-05-05 17:21 39.70423 3.22866 4977 ft 231 kts 270°
2026-05-05 17:22 39.70554 3.18698 4969 ft 230 kts 270°
2026-05-05 17:22 39.70618 3.16639 4957 ft 224 kts 269°
2026-05-05 17:22 39.70679 3.14669 4974 ft 212 kts 269°
2026-05-05 17:22 39.70737 3.12771 4978 ft 210 kts 269°
2026-05-05 17:23 39.70793 3.10880 4970 ft 209 kts 269°
2026-05-05 17:23 39.70601 3.09054 4967 ft 204 kts 246°
2026-05-05 17:23 39.70019 3.07375 4976 ft 203 kts 245°
2026-05-05 17:23 39.69402 3.05716 4983 ft 204 kts 242°
2026-05-05 17:24 39.68713 3.04105 4838 ft 210 kts 240°
2026-05-05 17:24 39.67963 3.02471 4588 ft 210 kts 239°
2026-05-05 17:24 39.67204 3.00858 4299 ft 208 kts 239°
2026-05-05 17:24 39.66451 2.99265 4031 ft 205 kts 238°
2026-05-05 17:25 39.65710 2.97701 3767 ft 203 kts 238°
2026-05-05 17:25 39.65221 2.96668 3581 ft 204 kts 238°
2026-05-05 17:25 39.64224 2.94562 3240 ft 204 kts 239°
2026-05-05 17:25 39.63489 2.93007 2969 ft 199 kts 239°
2026-05-05 17:26 39.62780 2.91508 2703 ft 191 kts 239°
2026-05-05 17:26 39.62099 2.90066 2465 ft 183 kts 238°
2026-05-05 17:26 39.61445 2.88682 2217 ft 178 kts 238°
2026-05-05 17:26 39.60808 2.87334 1975 ft 170 kts 238°
2026-05-05 17:27 39.60218 2.86083 1764 ft 155 kts 237°
2026-05-05 17:27 39.59677 2.84935 1565 ft 143 kts 236°
2026-05-05 17:27 39.59180 2.83884 1411 ft 131 kts 237°
2026-05-05 17:27 39.58715 2.82900 1220 ft 127 kts 238°
2026-05-05 17:28 39.58241 2.81894 1067 ft 135 kts 237°
2026-05-05 17:28 39.57748 2.80847 888 ft 141 kts 237°
2026-05-05 17:28 39.57231 2.79746 671 ft 141 kts 237°
2026-05-05 17:28 39.56731 2.78689 468 ft 137 kts 237°
2026-05-05 17:29 39.56242 2.77654 304 ft 133 kts 237°
2026-05-05 17:29 39.55765 2.76641 133 ft 132 kts 238°
2026-05-05 17:29 39.55295 2.75640 22 ft 122 kts 239°
2026-05-05 17:29 39.54918 2.74851 24 ft 82 kts 238°
2026-05-05 17:30 39.54670 2.74329 30 ft 61 kts 238°
2026-05-05 17:30 39.54551 2.73948 30 ft 33 kts 268°
2026-05-05 17:30 39.54549 2.73768 30 ft 2 kts 271°
2026-05-05 17:30 39.54549 2.73764 31 ft 0 kts 271°
2026-05-05 17:31 39.54551 2.73758 31 ft 2 kts 285°
2026-05-05 17:31 39.54600 2.73726 31 ft 7 kts
2026-05-05 17:32 39.54635 2.73769 30 ft 8 kts 73°
2026-05-05 17:32 39.54668 2.73874 30 ft 15 kts 58°
2026-05-05 17:32 39.54755 2.73951 29 ft 18 kts 349°
2026-05-05 17:32 39.54837 2.74001 28 ft 13 kts 357°
2026-05-05 17:33 39.54891 2.73966 28 ft 13 kts 329°
2026-05-05 17:33 39.54919 2.73871 27 ft 12 kts 254°
2026-05-05 17:33 39.54896 2.73810 28 ft 3 kts 240°
2026-05-05 17:33 39.54895 2.73806 28 ft 0 kts 239°